Location: Azul
(36.7830°S, 59.8500°W)
Time: 10:20:08
(UTC-03:00)

FO-99 - Visible Passes

Search period start: 22 October 2021 00:00
Search period end: 01 November 2021 00:00
Orbit: 472 x 501 km, 97.2° (Epoch: 21 October)

Date Brightness Start Highest point End Pass type
(mag) Time Alt. Az. Time Alt. Az. Time Alt. Az.
22 Oct ? 20:30:56 10° ESE 20:31:20 11° ESE 20:31:20 11° ESE visible
22 Oct ? 22:03:23 10° SSW 22:05:44 25° SW 22:05:44 25° SW visible
23 Oct ? 21:39:13 10° S 21:41:49 42° SSW 21:41:49 42° SSW visible
24 Oct ? 21:15:23 10° SSE 21:17:54 40° SE 21:17:54 40° SE visible
25 Oct ? 20:51:55 10° SE 20:53:58 23° ESE 20:53:58 23° ESE visible
25 Oct ? 22:26:13 10° SSW 22:28:18 15° WSW 22:28:23 15° WSW visible
26 Oct ? 20:29:09 10° ESE 20:30:03 13° ESE 20:30:03 13° ESE visible
26 Oct ? 22:01:29 10° SSW 22:04:27 28° WSW 22:04:27 28° WSW visible
27 Oct ? 21:37:18 10° S 21:40:31 58° SW 21:40:31 58° SW visible
28 Oct ? 21:13:28 10° SSE 21:16:34 52° ESE 21:16:34 52° ESE visible
29 Oct ? 20:50:01 10° SE 20:52:38 26° E 20:52:38 26° E visible
29 Oct ? 22:24:10 10° SSW 22:26:22 16° WSW 22:27:01 15° W visible
30 Oct ? 20:27:17 10° ESE 20:28:40 13° E 20:28:40 13° E visible
30 Oct ? 21:59:27 10° S 22:02:41 30° WSW 22:03:04 29° W visible
31 Oct ? 21:35:18 10° S 21:38:54 66° WSW 21:39:06 64° W visible
